Theta_e
322 321 323 327 325 328 334 335 334 340 339 333 335 332 330 332 329 327 329 333 332 332 334 339 336 333 339 342 344 343 345 348 348 348 348 349 347 347 349 348 349 344 342 346 347 349 349 349 348 346 342 337 332 325 323 323 323 324 330 333 334 336 336 336 337 336 331 328 328 330 333 333 336 339 340 341 342 341 342 342 341 341 340 338 336 334 335 337 339 340 340 341 340 339 338 337 337
321 320 325 330 327 331 340 338 338 340 335 331 332 331 331 331 330 327 328 335 335 332 334 334 334 335 338 341 341 345 348 347 347 350 349 348 348 349 349 349 348 341 342 346 347 349 349 348 348 346 342 338 333 325 323 324 323 326 332 334 335 337 336 336 337 333 328 329 331 332 334 333 335 339 340 341 341 342 342 342 341 341 340 338 336 335 336 336 337 339 340 340 340 339 339 337 337
319 318 323 333 330 331 339 338 339 336 332 334 334 333 330 328 329 328 328 332 333 332 335 333 334 336 335 340 343 348 350 349 349 349 349 349 349 349 349 349 345 339 342 346 347 348 349 348 348 347 343 340 334 325 324 325 324 328 333 335 336 337 336 337 336 331 328 331 333 333 333 333 336 339 340 341 341 341 342 342 342 341 340 338 335 335 336 335 336 337 338 339 339 339 339 338 337
317 317 322 332 334 333 339 339 342 336 332 336 333 335 331 328 329 327 329 331 331 332 338 337 335 335 334 341 344 350 352 350 349 349 349 349 350 349 349 347 342 338 342 347 347 348 349 348 347 346 344 340 334 326 323 325 325 330 335 336 337 338 337 337 334 331 329 331 334 335 336 337 338 340 340 341 341 342 342 342 342 342 340 337 335 335 336 336 335 336 337 338 337 336 337 337 336
316 319 323 329 336 336 337 337 339 334 333 335 332 338 333 329 329 328 329 330 331 333 338 337 334 333 335 339 342 353 354 350 349 348 349 348 349 349 348 346 340 338 343 346 346 347 348 348 347 347 345 341 335 326 324 325 326 332 336 337 339 339 338 338 334 330 330 332 335 337 338 338 339 340 341 341 341 342 342 342 342 341 338 335 336 335 335 336 335 335 337 337 337 335 334 334 334
317 322 323 327 334 331 333 334 333 332 331 333 331 335 332 329 328 328 330 329 331 332 334 335 332 333 336 336 340 349 350 350 350 348 348 348 349 348 347 345 339 337 341 344 345 346 347 348 348 347 346 341 335 326 325 325 326 333 337 339 340 339 339 339 334 330 330 332 335 338 338 338 339 340 340 341 341 341 341 341 341 339 337 335 336 336 335 335 335 335 336 337 337 334 332 333 332
317 323 326 331 335 329 333 333 330 331 329 329 329 330 329 328 327 329 332 330 331 334 335 331 330 335 337 338 344 346 346 349 349 348 349 348 348 347 346 343 339 336 336 340 342 344 346 347 347 347 345 342 334 325 326 326 330 336 338 340 339 339 340 339 335 331 331 333 335 337 338 338 339 340 340 340 340 340 340 340 339 337 335 333 334 336 335 334 334 334 335 336 335 332 332 332 331
317 324 328 333 337 329 330 329 327 329 327 327 327 327 328 327 327 329 333 333 332 336 338 330 331 341 340 342 347 345 347 349 348 349 348 347 347 346 344 341 339 337 334 337 340 345 347 347 347 346 344 343 335 326 327 327 333 338 338 339 339 339 340 339 336 333 332 334 336 337 338 338 339 340 340 339 339 339 339 339 337 332 329 329 330 332 333 333 333 334 335 334 331 331 331 330 330
317 323 326 329 334 328 327 327 325 327 325 325 325 326 328 326 327 329 333 334 332 332 333 329 333 341 341 345 348 346 349 350 349 349 346 347 347 344 342 340 339 339 336 338 342 346 348 348 347 346 344 344 336 326 328 328 332 337 338 338 340 339 339 339 337 335 334 335 337 338 338 338 339 340 340 339 338 338 338 337 333 329 326 325 326 326 328 333 334 334 333 331 330 331 330 328 329
317 322 326 328 329 327 327 327 325 325 324 324 324 324 326 325 327 331 333 333 332 330 330 332 335 340 343 346 347 348 350 350 350 348 346 346 345 344 343 341 341 342 343 342 344 345 347 348 346 345 344 341 333 328 330 330 331 335 337 337 339 339 338 338 338 337 336 337 338 337 337 337 338 340 340 339 338 338 337 335 330 328 327 324 322 321 325 331 332 331 330 330 331 330 328 328 329
320 321 324 327 325 324 326 327 326 326 324 324 324 323 323 324 328 331 332 331 330 328 330 336 339 341 344 346 347 348 350 350 348 346 345 344 343 344 344 344 343 345 346 346 346 345 346 346 346 344 342 337 332 331 332 332 332 333 336 337 338 339 338 338 338 338 338 338 338 337 337 337 338 340 340 338 337 336 335 333 329 328 327 323 321 319 321 325 328 329 329 331 330 328 327 328 328
322 321 322 326 325 325 326 326 325 326 325 324 324 324 324 324 328 329 330 329 326 325 329 338 340 341 345 347 348 348 350 347 344 344 344 343 343 344 344 344 344 344 345 346 347 346 346 346 344 343 340 336 333 334 335 335 334 330 332 336 338 339 338 337 338 338 338 338 337 337 337 337 338 339 338 337 336 335 334 332 329 328 326 323 320 319 318 321 326 328 330 330 328 327 327 329 329
320 321 321 324 327 326 324 323 324 326 324 322 321 323 325 325 327 328 327 324 320 323 330 338 337 340 345 347 349 348 348 343 343 344 343 343 344 345 345 343 342 343 343 344 345 345 346 345 343 342 340 336 335 336 338 339 337 329 328 335 339 339 337 337 337 337 337 337 336 337 337 337 338 338 337 335 335 335 334 332 329 328 326 324 321 318 318 320 325 329 330 329 327 327 327 329 329
318 322 321 323 326 324 322 322 322 322 320 320 319 321 325 325 325 323 323 321 319 322 329 338 338 342 347 350 353 350 345 342 342 344 343 345 345 345 345 342 342 343 343 342 343 343 344 344 342 340 341 339 336 337 340 340 336 329 329 335 338 338 337 336 336 336 336 336 336 336 336 337 337 337 336 335 335 335 335 333 329 328 326 325 322 319 318 319 325 329 329 327 327 326 326 327 327
317 321 321 322 322 322 322 322 321 319 320 321 319 321 323 322 322 321 321 320 318 320 324 331 333 340 347 352 355 349 343 340 342 343 343 344 345 345 344 343 343 344 344 342 340 341 342 344 342 339 341 340 338 339 341 340 336 332 333 336 338 337 337 335 333 334 334 335 335 335 336 336 336 336 336 335 335 334 335 333 329 328 327 325 322 319 318 320 326 328 328 327 326 325 325 326 326
317 318 320 321 320 320 321 322 322 319 319 321 320 321 321 320 320 321 321 319 325 333 334 334 334 336 342 350 351 345 341 339 341 342 343 344 344 344 343 343 343 343 343 342 342 342 343 343 342 338 340 340 338 340 340 340 335 333 336 338 338 338 336 334 332 333 334 334 334 335 336 336 336 336 336 335 334 335 335 333 329 328 328 325 321 319 319 323 327 328 327 326 326 326 327 327 326
316 316 318 318 319 319 320 322 321 317 317 320 319 320 320 320 319 319 319 322 335 343 342 342 343 344 345 347 346 342 340 339 342 342 341 341 342 342 341 342 342 343 343 343 344 343 343 343 341 338 338 338 336 339 339 338 334 333 338 339 339 339 337 335 335 336 335 334 335 337 337 337 336 336 336 335 334 334 335 333 330 328 327 323 321 320 322 326 327 327 327 326 327 327 328 328 328
315 318 318 317 319 318 319 321 319 317 317 319 319 319 320 320 319 319 319 321 335 345 344 344 344 344 345 344 343 342 340 340 342 341 339 338 339 339 339 340 341 342 343 344 344 343 343 342 340 337 337 336 335 339 338 336 334 334 338 340 340 339 338 336 336 337 335 335 337 338 338 336 336 336 335 335 334 334 334 334 330 328 326 324 323 322 324 325 326 326 326 326 326 327 327 328 329
315 320 318 317 321 319 317 319 318 317 317 318 317 318 319 319 318 319 319 318 331 344 345 346 346 344 344 343 343 342 342 341 342 340 338 337 338 338 338 339 340 341 341 343 343 342 342 341 338 335 335 334 335 337 337 336 335 335 337 340 340 339 338 337 337 338 335 335 337 338 337 336 335 334 334 334 333 333 334 334 330 328 328 327 325 325 325 325 326 326 326 327 327 328 329 329 329
315 318 318 319 320 317 317 318 316 315 317 317 316 317 317 318 319 319 318 316 326 340 345 347 347 347 345 343 343 343 343 342 341 340 338 337 337 337 338 339 339 340 340 340 340 338 339 339 334 328 329 331 334 336 335 336 337 335 336 339 341 340 338 338 338 338 337 336 337 337 337 337 336 334 333 333 332 332 334 334 331 328 329 330 329 328 327 327 327 327 328 328 329 330 330 330 330
315 316 318 320 319 317 317 317 316 315 316 316 315 316 315 316 319 319 318 316 317 328 340 346 346 345 344 342 343 343 343 342 341 340 339 338 336 337 338 339 339 340 340 339 337 334 334 336 330 322 326 331 333 333 332 335 337 335 336 339 340 339 338 338 339 339 338 338 338 337 337 338 337 336 335 334 331 332 333 334 333 329 329 331 331 330 329 329 329 329 330 329 330 330 330 331 330
314 316 317 318 317 316 317 316 316 315 315 315 314 314 314 315 317 317 318 317 314 319 334 342 341 341 342 342 342 342 342 342 341 340 339 338 336 336 337 338 339 339 339 339 337 335 336 338 332 323 325 330 330 329 329 333 336 335 335 338 338 338 337 337 338 339 339 339 339 338 338 339 339 338 337 335 331 330 332 333 333 330 329 330 331 332 331 331 332 332 332 331 331 331 331 332 330
314 315 316 317 316 316 316 314 314 315 314 314 313 313 314 315 315 315 317 315 314 322 334 338 338 337 338 338 339 340 341 341 340 340 339 338 337 336 336 338 338 338 339 338 338 338 340 341 339 333 329 329 328 328 329 332 335 334 334 336 337 336 336 335 336 338 339 339 339 338 339 339 339 339 338 336 333 329 330 331 332 331 329 329 331 332 333 333 333 333 334 334 334 334 333 333 329
313 314 317 317 316 316 315 313 313 314 314 313 313 314 314 314 314 314 316 313 316 328 334 335 335 335 335 336 337 338 339 338 338 338 338 338 337 337 336 337 338 337 337 337 337 338 340 341 340 340 337 333 332 332 332 332 334 335 335 337 336 335 334 332 332 337 339 338 340 339 339 339 339 339 337 337 334 328 328 330 331 331 330 329 330 332 333 334 334 334 334 335 336 336 335 332 330
313 314 316 316 315 315 314 313 313 313 313 314 314 313 313 314 313 313 316 314 316 328 333 334 335 335 336 338 339 340 340 337 336 337 337 337 336 336 336 336 337 337 337 336 336 338 339 339 339 340 340 337 335 334 334 334 334 335 337 337 337 334 331 328 327 334 337 338 339 338 339 339 339 339 336 337 335 328 328 330 330 331 330 330 330 332 333 334 335 335 335 335 336 337 335 332 330
313 314 314 314 314 313 314 313 313 313 313 313 313 312 313 313 313 313 316 313 316 327 334 335 336 338 339 341 341 341 343 338 334 335 335 336 336 335 336 336 336 336 336 336 336 337 338 338 338 339 340 338 336 335 334 335 334 334 336 336 335 333 328 325 325 329 332 334 335 337 339 338 338 337 334 337 335 328 328 329 330 331 331 330 330 332 335 335 336 336 336 336 337 337 335 331 331
314 313 314 314 313 312 313 313 313 313 312 312 312 312 312 313 312 313 313 315 323 331 335 335 336 338 338 340 340 338 338 337 334 335 335 334 335 334 335 336 336 336 336 335 335 337 338 337 337 338 339 340 340 339 337 336 335 334 334 334 333 331 326 324 323 327 330 331 331 336 341 339 338 337 334 336 335 329 328 328 329 331 331 330 331 334 336 336 336 336 336 337 337 336 334 331 332
312 313 314 313 313 312 313 313 313 313 312 313 313 311 312 312 312 314 311 318 330 335 336 336 336 337 337 338 339 337 335 335 334 334 334 333 334 334 334 335 335 336 336 335 335 336 336 336 336 337 338 339 340 340 340 338 337 336 334 333 332 329 324 321 324 331 335 334 332 335 340 340 339 338 336 337 334 331 329 328 329 331 330 331 334 337 338 338 338 337 337 337 336 334 333 333 333
312 313 313 313 313 312 313 313 312 312 311 313 313 312 314 313 311 312 312 322 335 338 337 338 337 337 338 337 338 338 337 335 335 334 333 333 334 334 334 334 335 336 336 335 335 336 336 335 336 337 337 338 338 339 339 339 339 339 338 336 334 331 323 320 328 336 337 336 336 337 340 339 339 339 338 338 335 331 330 329 330 331 331 333 337 338 339 339 338 337 337 337 335 334 334 334 334
312 311 311 312 312 312 313 312 311 312 311 313 313 310 313 314 312 311 315 328 338 339 340 340 339 339 339 339 338 339 338 335 336 336 334 334 333 335 334 334 335 336 336 336 335 336 336 336 336 337 337 337 337 338 338 338 338 339 339 338 337 333 323 321 332 338 337 338 338 338 339 339 339 339 339 339 336 331 331 332 333 332 332 335 338 338 339 338 337 338 337 336 335 335 336 335 334
311 311 312 311 309 312 314 313 312 311 310 313 314 311 312 314 313 312 317 329 336 336 339 339 339 341 340 341 341 341 340 337 338 337 336 335 334 335 335 335 334 335 337 336 335 335 336 337 337 337 337 336 336 337 338 338 337 337 339 338 338 334 324 324 335 337 337 338 338 337 338 339 339 339 339 339 337 334 334 336 337 335 335 337 337 338 339 338 338 337 335 335 336 336 336 335 335
312 310 314 313 307 310 313 312 313 311 310 312 312 311 313 315 315 314 318 326 332 332 335 335 336 338 338 341 341 342 342 339 339 339 338 336 336 335 335 336 335 335 336 336 336 336 336 336 336 337 336 336 336 336 337 337 336 336 337 337 337 335 327 327 334 336 337 337 337 337 337 338 339 339 339 339 339 337 337 338 338 338 338 337 337 338 339 339 338 338 336 336 336 336 336 335 335
317 311 311 313 308 308 310 311 312 311 311 310 310 311 314 318 315 315 321 325 329 330 332 332 332 333 333 335 336 337 338 338 338 339 339 338 337 337 336 336 336 336 336 336 337 336 335 334 335 336 335 335 336 336 336 335 336 335 335 336 336 335 331 329 333 335 336 337 337 337 337 339 339 339 339 339 339 339 338 339 338 338 339 338 338 338 338 339 339 338 338 337 336 336 336 336 336
322 316 310 311 309 308 308 310 311 311 311 310 311 313 316 319 316 318 324 327 329 330 331 331 331 332 332 332 332 334 336 337 337 337 339 339 339 339 338 338 338 338 337 336 336 334 334 334 334 334 335 335 335 335 335 334 335 334 334 335 335 334 333 332 333 335 335 337 337 337 338 338 338 338 338 339 339 338 338 338 339 338 338 338 338 338 338 339 339 339 339 338 337 337 336 336 336
320 316 311 312 310 309 309 309 311 310 311 311 311 312 315 318 315 318 325 327 329 330 330 331 331 331 331 331 332 334 336 337 336 336 337 338 337 338 339 338 338 338 338 337 336 334 334 335 334 334 334 334 334 334 335 334 335 335 334 335 335 333 334 333 333 335 336 336 335 337 339 338 338 337 338 339 338 337 338 338 339 338 338 339 338 338 339 340 339 339 339 337 337 337 337 336 336
315 314 313 312 311 311 310 310 311 310 311 312 311 311 316 318 315 318 324 326 328 328 329 330 330 330 330 330 331 332 335 336 335 335 335 335 335 336 337 338 338 338 337 336 336 336 336 336 334 334 333 334 335 334 335 335 335 335 334 335 335 333 334 335 334 336 337 334 334 336 338 338 338 337 338 338 337 337 338 337 338 338 338 338 338 338 339 338 338 338 338 337 336 336 336 336 335
313 313 313 312 310 310 311 311 311 312 313 313 312 313 316 317 315 318 323 325 326 327 328 329 329 329 329 330 329 330 331 332 332 334 334 333 332 333 334 335 336 337 338 337 336 336 336 336 335 335 334 334 334 334 334 335 335 335 335 335 335 334 334 334 335 336 337 335 335 335 336 337 338 337 337 337 337 337 336 335 335 336 338 338 337 337 337 337 337 336 336 335 336 336 335 335 334
313 313 312 312 311 310 312 312 312 315 316 313 313 315 317 318 316 319 324 325 326 327 328 328 329 329 329 329 329 329 329 328 329 331 332 332 331 331 332 332 333 334 335 336 335 335 334 334 334 335 335 334 335 335 335 335 334 335 335 334 334 335 334 334 334 335 336 336 336 336 335 336 337 336 336 336 335 335 334 334 333 333 337 337 337 336 335 336 337 334 334 335 334 334 334 333 332
314 314 313 313 312 312 313 314 313 315 316 314 314 314 315 317 317 319 324 324 325 326 327 328 328 329 328 328 328 328 329 329 329 328 329 331 331 331 331 331 332 332 333 333 333 333 333 332 332 333 334 334 334 334 335 335 334 334 334 334 334 335 335 334 333 334 335 337 337 336 335 335 336 336 336 335 334 333 332 333 332 331 333 335 335 333 332 335 335 332 332 335 334 331 332 332 331
316 314 313 313 313 312 314 316 314 315 315 314 316 317 315 315 318 322 323 323 324 324 325 327 327 328 328 327 327 328 329 330 330 329 328 329 330 330 330 331 331 331 332 333 332 331 332 333 333 333 334 334 334 334 334 334 335 334 333 334 333 334 335 334 334 333 334 337 338 336 335 335 336 336 336 335 334 333 332 332 331 330 330 331 332 330 328 330 332 330 331 333 334 333 332 330 329
321 316 311 314 314 313 315 316 317 320 320 317 320 323 319 316 320 324 324 323 324 324 325 326 327 327 327 326 326 327 329 330 330 331 330 328 329 329 329 330 330 330 332 333 333 331 331 332 333 334 334 334 334 334 333 333 334 334 334 334 334 333 335 334 333 332 333 335 337 338 337 336 337 337 336 334 333 333 333 334 333 331 330 330 330 329 328 328 326 326 328 331 332 333 332 330 329
323 319 315 315 315 315 315 315 320 324 321 318 321 320 317 317 322 324 323 324 324 323 325 326 326 326 326 326 327 327 328 329 329 330 329 328 328 329 328 330 330 330 331 332 333 333 331 331 331 332 333 334 334 333 333 333 333 334 334 335 334 334 334 334 334 332 332 334 335 337 339 338 338 336 336 334 332 331 333 335 335 333 331 330 330 330 331 330 324 321 324 327 330 332 332 331 331
320 318 317 315 316 316 314 314 318 319 317 317 319 317 315 318 322 323 322 324 324 323 324 324 324 324 325 325 326 327 327 328 328 328 327 327 328 328 328 329 330 330 330 330 331 332 332 332 331 331 332 333 334 333 333 333 333 334 334 335 334 334 334 334 333 331 331 334 333 335 337 339 339 337 335 335 333 330 330 333 334 334 334 332 332 332 333 332 328 322 322 325 326 330 333 333 333
319 320 318 316 316 315 315 315 314 315 316 318 319 320 320 320 321 322 321 323 324 324 323 323 322 322 322 323 324 326 327 327 327 328 328 327 327 328 328 328 329 329 330 330 331 331 332 332 332 332 332 333 334 334 333 333 333 333 334 335 335 335 334 334 333 330 330 332 332 333 335 337 339 337 335 336 336 333 330 329 329 332 335 334 334 335 335 333 330 327 327 328 327 329 333 334 334
321 322 318 316 316 316 317 315 315 316 317 320 325 321 319 321 322 321 321 324 324 323 323 323 323 322 321 322 323 325 327 326 326 327 327 325 325 326 327 327 328 328 329 330 331 331 332 332 332 333 333 333 334 333 333 334 333 334 333 333 334 334 334 334 333 332 331 331 331 332 333 334 337 337 336 336 337 337 335 332 328 328 333 336 336 336 336 334 330 329 331 333 332 332 333 334 335
321 319 318 318 317 318 319 315 316 319 318 322 327 321 319 324 326 323 321 324 326 324 324 323 323 323 322 322 323 325 325 325 325 324 323 323 323 324 325 326 327 328 328 329 331 332 332 333 332 332 333 334 334 334 333 333 334 334 332 332 333 334 334 335 334 333 333 333 333 334 334 334 335 335 335 336 338 339 339 338 335 330 329 333 337 338 337 335 332 331 333 334 335 336 336 337 337
318 318 320 320 319 322 325 322 317 317 322 325 323 321 323 325 327 328 327 327 328 325 325 323 322 324 323 322 323 324 325 325 325 324 322 321 322 323 324 325 326 327 327 328 331 331 332 333 332 332 333 334 334 334 333 333 333 333 332 331 333 334 335 335 335 335 335 335 335 335 334 334 335 334 333 334 336 337 337 338 338 336 331 328 332 336 337 336 335 334 334 335 336 337 338 339 338
317 319 319 319 324 329 332 330 319 316 324 325 319 319 322 324 326 330 330 328 326 324 325 324 324 324 323 323 323 323 325 325 326 327 324 321 321 322 323 323 325 326 326 327 329 331 331 332 332 332 333 333 334 333 333 333 333 333 332 333 334 334 333 333 334 334 335 335 335 334 334 334 334 333 332 332 333 335 336 337 337 338 335 330 328 330 331 333 336 337 336 337 337 337 337 338 339
322 328 329 323 325 326 328 330 321 322 327 321 318 319 321 328 331 329 326 326 326 325 324 325 325 324 323 323 323 322 323 325 326 327 327 322 320 321 322 322 323 325 326 326 327 329 330 331 331 331 332 333 333 331 331 331 331 331 331 332 334 334 333 333 334 334 334 334 334 334 334 334 333 333 333 332 331 332 335 336 337 338 337 335 333 330 329 332 336 338 339 339 338 338 337 337 338
322 331 334 328 326 322 324 329 324 327 331 322 320 319 319 326 329 326 326 325 326 326 324 324 325 324 323 323 322 322 322 325 326 327 328 324 320 320 321 321 322 323 325 325 326 327 328 329 329 329 331 332 332 331 330 331 331 330 330 330 332 334 335 334 333 333 333 334 334 334 334 333 333 333 333 333 332 332 334 335 338 339 338 338 337 335 334 335 336 338 338 338 339 339 339 338 339
320 323 325 326 332 330 327 329 326 326 330 327 323 318 321 328 326 323 326 325 324 325 324 324 324 323 323 322 322 323 322 324 325 326 326 322 319 320 320 320 321 322 323 324 325 326 327 328 328 328 329 331 332 332 332 333 332 332 332 331 331 333 334 334 333 333 333 334 335 334 334 333 333 333 334 334 334 334 334 335 337 339 339 339 339 339 338 338 338 338 338 338 339 339 339 339 340
324 321 322 325 331 335 331 328 329 329 327 328 327 321 324 329 325 321 324 325 324 325 326 325 324 323 323 323 323 324 324 324 324 326 325 320 319 320 319 320 321 321 321 322 323 325 326 327 327 327 328 329 330 331 332 332 332 332 333 332 331 330 332 333 333 333 333 333 334 334 334 334 333 334 334 335 335 334 334 335 336 337 338 339 339 339 339 339 339 339 339 339 339 339 339 339 340
327 320 325 328 324 332 333 325 326 327 324 325 327 325 325 325 324 322 322 325 324 324 327 327 325 324 323 323 324 323 324 324 324 324 322 319 318 319 319 320 321 320 320 321 322 324 324 325 326 326 327 327 329 330 331 331 330 330 332 332 330 329 331 333 333 334 333 333 333 333 334 334 334 335 335 335 335 334 334 335 335 336 337 338 337 338 339 339 339 338 338 338 337 338 338 339 339
326 324 329 327 318 324 330 327 327 325 323 326 326 328 328 324 326 325 323 325 325 324 327 326 324 324 324 323 322 322 323 323 323 322 319 317 317 318 319 320 320 320 320 320 321 322 322 324 325 325 326 326 327 329 330 330 329 329 330 330 330 330 331 332 333 334 334 333 333 333 334 334 334 335 336 336 335 335 334 335 335 336 338 338 337 336 336 337 338 338 337 337 337 337 337 338 339
323 328 328 324 322 325 326 326 327 324 324 325 322 325 327 326 328 327 323 325 325 325 326 325 324 324 323 322 321 320 322 322 321 322 321 317 316 317 318 319 320 319 320 320 319 320 321 322 323 323 323 325 326 326 327 327 328 329 329 328 329 331 331 331 334 335 334 333 333 333 334 333 333 334 335 336 335 335 334 334 334 336 338 338 337 336 336 337 338 338 337 337 337 338 338 339 339
322 325 322 322 328 330 326 324 324 324 325 324 321 322 327 329 330 328 325 324 324 325 325 324 324 324 323 323 323 322 322 322 320 323 323 317 315 317 318 318 319 318 319 319 318 319 320 321 322 322 322 323 324 325 325 325 326 328 329 328 329 331 331 331 334 335 334 333 333 333 333 333 333 333 333 335 335 336 335 333 334 335 337 339 339 338 338 338 338 338 337 338 338 338 338 338 338
323 325 322 321 325 324 324 324 323 324 325 326 324 324 331 334 330 328 327 324 322 323 325 324 324 323 323 324 324 324 324 323 322 324 322 316 314 317 318 317 318 317 318 318 318 318 319 319 320 321 321 320 321 324 325 324 324 325 327 327 328 329 330 331 333 333 333 333 332 332 332 333 333 333 333 334 335 335 334 334 334 333 335 338 339 338 338 338 338 338 338 338 338 338 338 338 338
321 326 326 327 326 324 324 324 323 323 323 327 327 326 334 335 328 328 329 324 322 321 323 324 322 322 323 323 324 325 325 325 326 326 321 314 314 317 317 317 317 317 317 317 317 318 318 318 318 318 319 319 319 322 323 323 323 324 324 325 326 327 328 330 330 330 330 331 331 332 332 332 333 333 333 334 334 334 334 333 331 330 334 337 336 336 337 337 337 337 337 337 337 338 338 337 337
Wind_Speed
8 8 6 4 4 4 3 3 2 2 2 1 3 1 5 5 4 2 3 3 3 4 4 3 5 4 4 4 6 5 4 3 3 4 2 3 15 25 18 15 20 24 26 23 22 21 18 17 15 15 17 18 17 16 16 15 14 14 15 17 20 20 19 19 18 18 18 20 21 21 20 20 20 19 18 16 16 17 17 18 17 17 16 16 16 17 18 19 18 18 18 18 18 19 19 21 22
7 7 5 5 5 3 1 2 2 2 3 1 3 3 5 4 4 6 7 4 3 4 7 8 7 5 7 6 5 5 5 4 5 3 3 15 22 21 18 19 21 25 26 23 22 21 19 18 15 16 17 17 17 16 16 15 14 14 16 18 19 19 19 19 19 18 19 20 20 19 18 18 18 17 16 15 15 16 16 16 16 16 15 15 16 17 18 18 19 18 17 17 17 17 18 19 20
7 7 4 5 4 1 0 2 2 1 2 2 4 4 3 4 7 9 9 6 6 5 7 8 6 3 7 7 2 3 2 3 8 6 7 19 18 16 23 23 23 26 25 24 23 22 21 19 16 16 17 17 17 17 16 15 14 15 16 18 19 19 19 19 19 19 19 19 19 18 17 17 17 15 15 15 15 15 15 16 15 15 14 14 15 16 17 18 18 18 17 16 16 17 17 17 17
7 7 4 4 3 2 3 2 2 3 2 3 4 5 4 5 9 9 5 6 7 6 5 2 3 1 3 6 3 2 4 2 7 9 8 13 18 23 27 24 25 27 25 24 24 23 21 19 17 16 17 17 17 17 17 16 15 15 16 17 18 18 18 19 19 19 18 18 18 17 17 16 15 15 15 15 15 15 15 15 14 14 13 13 14 16 16 16 17 17 17 15 17 19 18 17 16
7 5 2 3 3 1 2 1 1 3 3 4 3 6 5 6 9 8 2 6 7 8 7 2 2 1 1 3 3 2 4 4 6 10 13 17 27 30 28 25 26 27 26 24 23 23 22 20 18 17 17 18 18 18 17 16 15 16 16 15 15 17 17 18 19 19 18 17 17 16 15 15 14 15 15 15 15 16 15 15 14 13 12 12 14 16 16 16 16 17 16 16 17 19 18 16 16
6 4 2 3 1 1 1 1 1 2 5 4 3 7 6 6 8 6 5 5 2 8 9 5 5 4 2 2 4 3 4 8 7 9 18 26 32 30 28 28 28 28 26 24 23 23 22 21 19 18 17 18 19 18 17 16 15 15 14 14 14 16 16 16 18 19 18 17 15 15 14 14 14 14 15 15 15 15 15 14 13 12 10 11 13 15 15 15 16 16 17 17 16 17 17 15 14
6 4 2 2 1 0 3 2 3 4 5 5 5 8 9 9 7 3 3 4 2 5 3 2 7 7 1 2 5 5 9 13 11 13 23 31 32 30 29 29 30 30 27 25 24 24 23 21 20 19 18 19 20 19 18 16 15 14 13 14 14 15 16 16 17 18 18 16 15 14 13 13 14 14 15 15 15 15 14 14 12 11 9 10 12 13 14 15 16 17 17 18 17 17 16 15 15
4 2 1 3 1 1 2 2 4 4 5 5 7 9 10 11 7 3 3 2 3 2 2 4 11 7 3 3 5 5 14 17 19 24 31 34 33 31 30 30 31 31 28 26 25 24 22 21 21 19 19 20 20 20 18 16 15 14 13 14 14 14 16 16 17 18 17 16 14 14 13 13 13 14 14 14 15 14 13 13 11 10 9 9 11 13 14 16 17 16 17 20 20 17 16 17 18
2 1 1 2 1 1 1 3 4 5 5 6 7 10 9 10 9 3 4 1 2 5 7 8 11 7 2 8 8 5 14 23 29 31 32 33 32 32 30 29 30 31 29 28 27 24 22 21 20 19 19 19 20 20 19 17 15 15 14 14 14 15 16 16 16 17 17 15 14 13 13 13 13 13 14 13 13 13 12 11 10 9 9 9 10 12 14 15 15 17 20 22 20 18 18 18 18
1 1 1 1 2 1 3 3 5 4 6 7 8 12 10 9 7 4 6 1 2 2 5 10 10 9 8 8 6 5 15 27 31 27 28 31 30 30 28 26 27 28 28 28 28 26 23 21 19 18 18 19 20 20 19 17 16 15 15 15 15 16 17 15 15 16 16 15 14 13 13 13 13 13 13 12 12 12 12 10 10 9 9 9 9 12 14 15 16 20 23 22 20 18 17 16 17
2 2 2 2 2 1 3 4 5 5 7 8 9 13 12 10 5 6 5 2 3 2 9 13 9 10 11 7 4 9 21 27 27 26 29 33 30 29 28 26 25 23 23 24 25 25 24 22 20 18 18 18 19 19 18 17 15 15 16 16 15 15 16 15 15 15 15 15 14 14 13 13 12 13 13 12 12 11 11 10 9 9 9 9 10 11 14 16 18 22 23 21 20 18 17 15 16
2 2 3 3 2 3 4 3 5 7 9 7 9 11 9 11 6 6 4 2 2 4 9 11 8 9 10 6 4 12 21 22 26 29 33 35 32 32 31 30 28 24 21 21 23 23 24 23 21 19 19 19 19 17 16 15 13 14 16 16 15 15 16 15 14 14 14 13 13 14 13 13 12 13 13 12 12 11 10 9 9 9 9 9 10 11 13 16 19 22 22 21 20 20 20 18 16
2 1 4 1 3 3 3 3 5 6 7 6 8 9 4 6 3 4 5 6 8 9 7 10 9 9 9 6 6 10 14 17 26 31 33 34 32 34 34 31 29 28 25 24 25 23 23 22 21 20 19 20 19 16 13 13 12 13 16 16 15 15 15 15 14 13 13 13 13 13 13 13 12 13 13 12 11 10 9 8 8 9 9 9 9 10 12 15 19 22 22 20 20 21 22 22 21
3 2 4 1 2 0 3 3 4 4 6 8 8 6 1 4 3 5 7 10 11 8 8 11 11 11 9 6 6 5 7 18 29 31 32 32 31 33 32 29 27 29 29 29 29 26 24 23 22 21 20 19 19 16 13 12 13 14 16 16 15 14 14 14 14 13 12 13 13 12 12 12 12 12 13 12 11 10 9 8 9 10 9 9 9 9 12 15 20 22 21 20 21 20 22 24 24
4 1 3 1 3 2 4 3 2 3 5 8 9 6 5 3 4 9 7 7 7 5 9 11 9 8 9 9 7 6 10 23 31 31 32 31 31 32 32 29 26 26 27 30 30 28 27 27 25 23 21 20 19 18 14 12 13 15 16 16 15 14 13 13 13 13 12 12 12 11 11 11 11 12 12 11 10 10 8 8 9 10 9 9 9 10 12 17 21 21 21 21 21 21 22 23 23
3 2 3 1 2 3 3 3 1 3 6 7 8 7 9 6 4 7 1 6 10 9 9 3 1 5 10 10 14 16 17 26 31 31 32 31 31 31 30 28 25 25 26 28 30 30 29 29 27 25 24 21 20 20 16 14 14 15 16 15 15 14 13 13 13 13 12 12 12 11 11 11 11 11 11 11 10 9 8 8 9 10 10 10 10 12 15 19 21 21 21 21 20 20 21 21 21
2 2 1 1 3 5 3 1 2 3 6 7 8 7 9 6 7 2 1 13 16 13 14 8 7 8 9 11 21 25 24 29 30 29 28 27 27 26 25 25 25 26 27 28 29 30 29 29 28 27 25 21 21 21 18 16 15 16 16 15 15 14 14 14 13 13 13 12 12 11 11 11 12 11 11 11 10 9 8 8 9 11 12 13 13 15 18 20 21 21 21 21 19 19 19 18 18
2 2 2 2 4 5 2 3 3 3 5 7 8 7 7 6 6 4 4 14 17 16 14 12 14 14 16 20 26 28 28 31 28 27 23 20 21 21 20 23 24 26 28 29 29 30 30 29 28 27 25 22 23 22 20 19 17 17 16 15 15 15 14 14 14 14 14 13 12 12 11 11 12 12 11 11 10 9 8 8 10 12 15 16 17 18 19 19 20 20 21 20 19 19 17 16 16
3 2 3 4 6 3 3 3 4 3 3 6 8 8 8 6 3 3 6 11 16 16 11 14 17 15 18 22 24 25 27 28 26 26 22 19 19 19 19 20 23 26 29 30 30 31 30 29 28 28 26 24 24 24 23 21 20 19 17 17 16 16 15 15 14 15 15 14 13 12 11 11 11 11 11 11 10 10 8 8 10 13 17 18 20 21 20 20 20 21 21 20 19 17 14 14 12
3 3 3 6 6 2 3 4 4 3 1 4 8 7 8 8 4 2 6 10 13 13 10 13 15 15 16 16 20 23 23 23 25 26 23 20 20 20 21 22 25 28 29 30 31 31 31 31 31 30 27 26 25 25 25 23 21 20 19 18 16 17 17 16 16 16 16 15 14 12 11 10 11 11 11 11 11 10 9 9 10 13 17 18 19 21 21 21 21 21 20 19 17 15 14 14 10
2 4 4 7 5 3 2 3 4 4 3 5 5 7 8 8 5 4 6 9 8 8 11 14 16 16 16 14 16 19 20 20 21 22 22 20 20 22 25 27 29 29 28 28 31 33 32 33 33 32 30 29 28 27 27 25 23 21 21 20 18 18 18 17 17 16 17 16 15 13 11 10 11 11 12 11 12 12 11 10 11 13 16 16 17 18 18 19 19 18 18 17 15 14 14 13 10
2 3 6 7 5 3 2 2 1 2 4 5 6 7 5 5 4 5 8 8 4 4 11 16 18 16 16 15 14 15 15 15 16 18 19 19 21 22 24 25 25 26 28 29 32 33 33 32 32 34 34 32 30 30 29 27 26 24 23 22 20 20 19 19 18 18 18 17 16 15 13 12 12 12 12 12 12 13 13 12 12 13 15 15 15 15 15 15 14 14 14 14 12 10 9 8 10
3 5 5 6 6 3 2 2 3 4 5 5 3 1 3 5 5 4 7 7 5 8 13 16 16 16 18 15 12 11 11 11 13 16 17 20 23 24 26 26 26 28 28 28 29 30 30 28 27 31 33 34 33 32 31 30 27 25 25 24 23 22 22 21 21 20 19 18 18 17 16 14 14 13 13 12 13 14 14 13 13 13 14 13 13 13 12 12 11 10 9 10 9 7 6 6 12
6 6 5 6 5 4 3 2 2 5 6 3 2 3 5 6 4 4 5 6 9 12 13 14 13 15 16 12 9 8 7 6 8 11 15 19 24 26 27 27 27 28 26 25 26 25 26 25 25 27 29 32 33 32 32 30 28 26 25 25 23 23 23 22 22 22 21 20 19 18 17 15 15 15 13 13 13 15 15 14 14 14 14 13 12 11 11 9 8 8 7 7 6 5 6 8 12
7 7 5 3 2 3 3 2 4 5 6 3 5 5 1 0 1 3 4 6 13 13 11 13 11 11 10 8 7 6 5 3 4 6 9 14 18 20 21 23 23 24 23 23 23 22 23 23 23 25 27 29 30 30 30 30 29 27 26 26 24 22 22 22 22 23 23 21 21 19 17 16 16 16 14 13 14 15 15 15 15 15 15 13 12 11 10 8 7 7 6 5 5 4 6 11 13
6 6 2 1 2 2 2 5 4 4 3 3 6 2 3 3 1 2 6 6 16 15 12 12 11 11 8 7 6 5 4 2 1 4 7 10 14 16 19 21 21 22 21 19 19 20 22 22 21 23 25 26 28 28 29 30 30 29 28 27 24 23 22 22 22 23 22 21 21 20 17 17 18 17 15 14 15 16 16 16 16 15 15 14 13 11 8 7 6 6 5 4 4 5 9 14 14
3 3 1 3 3 3 2 4 2 2 1 2 5 4 3 4 1 0 5 8 21 18 14 12 12 11 8 6 5 5 5 4 3 2 2 5 9 12 16 18 18 18 16 15 17 18 20 20 20 22 23 23 25 27 28 30 31 31 31 28 26 24 23 23 23 22 21 20 21 21 18 18 18 17 16 15 16 17 17 17 18 17 15 15 14 11 9 7 6 6 6 5 4 8 13 15 13
1 4 2 5 6 5 2 3 1 1 1 3 7 3 2 3 2 5 4 13 23 20 15 13 13 10 8 7 5 4 4 4 3 3 2 3 4 7 10 12 12 11 11 12 14 15 16 17 18 20 22 21 21 23 23 25 28 29 30 29 27 24 24 24 23 22 20 18 20 21 20 20 19 18 17 17 17 17 18 19 18 18 17 16 14 11 9 8 8 8 8 8 8 13 15 13 11
1 5 3 6 7 6 6 3 2 2 0 4 7 5 6 4 2 6 5 16 22 19 16 13 12 9 8 7 5 4 4 4 2 2 4 5 4 5 8 9 10 9 8 10 10 11 13 14 15 16 19 18 18 18 16 17 20 22 25 26 25 24 24 25 24 22 20 18 19 20 20 21 20 18 18 17 17 17 18 19 19 18 17 16 14 12 11 10 10 10 10 9 13 17 14 12 12
2 4 3 3 7 5 7 4 1 2 2 4 7 4 6 5 4 5 8 20 21 17 14 12 11 8 7 6 5 4 5 6 5 2 3 3 2 3 6 9 11 11 9 9 8 9 10 10 10 13 16 17 16 15 13 12 13 13 17 20 22 22 23 26 24 22 20 19 19 20 21 22 20 18 18 18 17 18 19 19 18 17 16 16 14 13 13 11 9 9 10 14 17 16 12 13 14
2 3 3 2 2 5 8 3 1 1 1 5 9 4 3 1 1 4 11 21 20 15 12 11 10 8 7 6 5 4 3 4 4 3 1 1 1 2 4 6 9 12 11 10 8 8 7 4 4 9 14 16 14 14 15 14 12 12 13 16 19 21 23 25 24 23 20 20 21 20 21 22 21 19 18 20 18 19 19 19 18 17 15 15 14 13 13 11 9 9 14 17 16 13 13 14 14
3 2 3 3 1 4 8 5 4 4 1 4 9 4 1 0 1 3 12 19 19 15 11 11 10 9 8 5 6 5 4 7 7 4 3 3 1 2 4 4 5 9 11 10 8 6 5 1 2 5 10 13 11 11 15 14 11 12 15 17 16 18 23 24 23 23 21 21 22 20 21 21 22 20 19 20 20 18 19 19 19 17 16 16 15 14 13 12 11 12 14 14 14 14 14 15 15
4 2 2 3 2 3 5 5 5 8 3 2 6 4 2 2 1 7 17 19 18 15 11 12 11 10 8 5 5 4 4 7 9 8 5 3 1 2 3 1 1 3 5 8 7 6 6 3 2 5 7 9 9 9 11 10 9 11 13 17 18 16 22 25 22 23 22 22 23 20 20 21 21 21 20 21 21 18 18 19 19 18 17 16 16 16 15 13 12 12 12 13 14 14 14 15 16
4 1 1 4 4 3 3 5 5 8 6 3 5 5 5 5 3 11 18 19 18 15 12 12 10 9 8 7 7 6 6 6 7 9 7 4 3 2 0 2 4 3 1 3 4 4 8 8 6 9 11 12 16 16 15 14 13 12 12 15 20 16 18 26 25 23 24 24 23 21 19 20 21 21 21 22 21 19 17 17 18 17 17 16 17 17 15 13 12 12 12 13 14 14 14 14 16
2 3 2 3 4 4 6 6 5 7 6 6 7 6 6 6 7 12 16 19 19 15 12 11 10 10 8 8 8 7 7 6 6 9 10 8 7 6 4 5 6 5 7 6 5 5 11 16 19 22 21 18 22 25 24 21 16 15 15 13 19 18 13 22 28 25 27 27 24 23 21 19 21 22 22 22 21 20 18 17 17 17 16 17 17 18 16 15 15 13 12 13 14 13 12 14 16
5 5 3 3 4 4 8 7 6 8 6 4 6 7 7 7 8 12 14 17 17 14 12 10 9 9 8 8 8 7 8 5 6 11 14 13 12 10 7 6 6 4 6 6 6 8 12 17 22 28 29 23 22 27 28 27 21 17 17 14 17 21 13 15 26 28 28 29 26 25 24 19 20 22 21 23 22 20 20 18 18 18 18 17 18 18 17 17 16 14 13 13 13 13 11 12 15
3 3 2 3 3 4 5 2 4 8 6 0 4 8 8 7 9 13 13 14 16 14 12 10 9 9 8 9 9 9 8 5 7 12 14 15 14 13 11 8 5 2 1 2 6 11 12 14 20 24 27 25 23 28 31 31 28 22 21 18 16 21 17 10 18 29 29 29 29 27 26 23 21 21 21 23 24 21 21 20 18 18 20 19 18 18 17 17 16 13 13 14 14 13 11 9 11
3 2 3 5 3 5 5 3 2 5 6 1 3 9 7 6 7 11 14 14 13 13 13 11 11 10 9 11 10 9 6 5 7 9 11 14 14 14 13 11 7 3 1 2 6 11 12 13 17 20 22 24 24 28 31 33 33 30 28 27 21 19 21 12 9 21 27 27 29 29 29 27 25 24 22 23 24 22 22 22 19 17 20 21 19 17 17 18 17 13 11 14 15 14 13 10 9
3 3 3 4 4 5 5 5 4 4 5 1 3 9 6 4 7 6 9 11 9 9 11 11 11 11 9 10 9 8 7 6 6 7 9 12 13 14 14 13 11 7 5 2 5 9 12 11 13 16 18 22 23 25 30 33 36 36 34 33 27 20 21 18 8 11 22 25 28 30 30 30 28 27 26 24 23 22 22 24 22 19 20 21 19 18 18 19 19 14 11 14 16 15 15 13 10
2 3 3 3 3 3 3 5 7 5 3 2 4 6 3 5 9 7 6 8 9 9 10 9 10 11 10 9 9 8 8 7 6 5 6 9 12 14 14 14 13 9 7 5 4 5 9 11 12 14 16 20 24 25 27 31 33 36 36 35 32 25 23 24 15 10 16 23 25 29 30 30 29 28 28 27 25 24 23 23 23 22 22 22 20 18 18 19 20 17 13 13 15 15 16 15 14
4 1 1 1 2 2 1 2 5 6 4 2 6 5 3 4 8 6 6 7 9 8 10 9 8 9 9 8 8 9 8 7 6 5 4 7 10 12 13 13 13 11 8 7 5 3 4 9 13 15 16 19 22 25 25 26 28 31 33 30 28 27 24 25 21 15 12 18 22 26 28 28 28 28 27 27 28 27 25 23 21 22 24 23 22 19 18 18 20 20 17 15 16 17 17 17 17
4 2 0 2 3 1 1 1 4 5 5 2 5 5 3 4 6 5 3 6 7 4 7 9 7 7 8 7 8 8 7 6 6 5 4 6 8 10 13 13 13 12 9 8 6 4 3 7 12 14 16 18 19 22 24 24 26 29 31 29 27 28 25 25 27 23 16 14 17 22 26 27 27 28 26 25 27 29 29 26 21 21 24 24 23 20 19 19 19 21 21 19 19 19 19 19 19
2 3 2 4 6 5 5 4 5 3 2 4 3 5 2 2 4 2 2 6 6 4 5 7 6 6 6 7 7 8 7 6 5 5 4 6 8 9 11 11 11 11 10 8 6 5 3 5 9 13 16 18 19 20 22 24 25 28 31 32 30 30 28 27 30 29 22 16 15 18 22 26 27 27 27 25 26 28 30 29 24 20 22 24 23 21 21 20 20 20 20 21 21 20 20 21 21
2 5 3 6 6 6 4 5 4 2 2 4 3 4 4 1 1 2 2 7 6 4 4 4 5 6 6 7 7 8 7 6 5 4 4 5 7 8 8 9 9 9 9 8 6 6 5 4 6 9 12 15 19 20 22 24 23 25 28 29 29 31 31 30 30 29 27 21 17 17 20 24 27 28 28 27 26 27 28 29 27 23 22 23 23 23 22 22 21 20 20 21 21 21 21 21 22
5 6 5 6 3 3 3 5 3 1 3 4 6 1 3 1 3 4 1 5 5 2 3 3 4 5 6 7 7 7 6 6 6 5 4 5 8 8 7 8 9 8 8 9 6 5 5 5 4 5 8 13 16 17 21 24 22 19 20 20 22 26 29 29 28 28 28 25 20 20 21 23 25 27 27 27 27 27 27 27 27 26 24 24 24 24 23 21 21 22 22 22 22 22 22 22 22
6 4 5 5 4 3 4 5 3 4 4 2 7 1 3 1 3 3 1 4 5 4 3 3 3 4 6 7 7 7 6 5 5 5 6 8 9 9 8 8 9 8 8 9 7 4 4 5 4 4 6 11 13 14 19 24 22 19 17 17 18 21 23 24 25 25 26 25 21 20 21 23 24 25 26 26 26 26 25 24 25 27 26 24 24 24 23 22 22 22 22 22 22 22 22 22 23
3 5 5 5 6 5 4 4 4 4 2 4 6 2 4 1 3 4 3 4 6 6 4 3 3 5 5 6 7 6 5 5 4 4 6 9 10 10 10 10 9 9 9 9 7 5 4 6 4 3 6 9 12 13 18 21 23 23 22 20 19 19 21 21 23 23 23 23 22 20 20 20 22 23 24 24 24 23 22 22 22 24 26 25 25 24 24 23 23 23 22 22 22 22 21 21 21
4 4 3 3 5 5 5 5 4 3 3 4 6 6 5 2 4 4 3 4 5 7 6 6 5 5 5 5 6 5 5 5 4 4 5 8 10 10 10 11 10 9 10 10 8 6 5 5 5 2 6 11 12 12 15 18 20 23 24 23 21 20 19 20 20 20 20 21 21 20 19 18 18 20 21 23 25 23 21 20 20 22 25 25 26 27 26 25 22 22 23 22 22 23 23 22 20
5 4 5 3 2 3 3 3 1 1 4 3 4 5 3 2 5 4 2 3 5 5 6 7 7 6 5 5 5 5 5 5 4 4 4 5 6 8 9 10 10 8 9 10 8 7 6 5 4 3 4 9 10 8 11 14 16 20 23 22 22 21 21 21 20 18 18 19 19 19 19 18 17 18 20 23 24 23 23 20 17 22 25 24 25 26 26 25 23 22 21 21 21 22 24 24 21
4 2 3 3 2 2 1 3 1 2 4 3 3 3 0 2 3 3 4 4 5 4 5 5 5 6 6 5 5 5 5 5 4 4 3 4 4 6 8 9 10 9 9 9 8 7 6 5 5 3 3 5 6 7 9 12 14 17 18 18 19 21 22 21 22 20 18 17 18 19 20 20 20 20 20 19 19 20 21 20 15 17 22 24 25 25 24 24 24 23 22 20 20 21 23 22 21
1 2 4 3 3 4 2 3 2 2 3 4 4 1 2 2 3 4 5 4 5 6 5 5 5 5 5 5 5 5 5 5 4 4 4 3 4 5 6 6 8 9 9 8 9 7 5 6 6 5 3 2 3 5 6 9 12 15 16 17 20 22 22 22 22 21 19 16 16 17 18 19 19 19 17 15 14 15 17 18 15 14 16 20 23 24 23 22 22 22 22 21 19 19 20 20 20
2 1 4 1 3 4 2 2 4 3 1 3 2 0 2 3 2 2 2 4 5 6 5 6 6 5 5 5 4 5 5 4 4 4 3 3 2 2 3 4 6 8 10 9 9 8 6 6 6 6 6 3 1 2 3 6 11 14 14 16 20 22 21 22 22 20 17 15 13 14 16 18 17 17 15 13 13 14 16 17 16 14 15 16 17 18 19 19 19 19 19 19 18 16 16 18 19
2 2 1 3 3 5 4 1 1 3 2 2 1 1 2 1 1 2 3 5 4 5 5 5 5 5 6 5 4 4 4 4 4 4 2 1 1 0 1 2 3 5 8 10 9 7 7 7 6 7 7 6 3 1 2 4 8 12 12 13 18 21 19 19 19 17 13 13 14 13 14 16 16 16 16 14 13 15 17 17 15 14 16 18 18 18 18 17 17 17 17 17 16 15 15 16 18
3 1 3 2 2 4 3 1 2 3 1 3 2 2 2 1 1 3 4 6 4 4 5 5 4 5 5 4 4 4 4 4 3 3 1 2 1 1 1 1 0 3 5 8 8 8 7 7 7 8 8 7 6 4 2 0 3 6 10 13 16 17 16 16 16 15 14 14 16 14 12 12 12 14 15 14 14 15 16 15 13 14 17 19 19 19 19 18 17 17 17 18 16 14 13 14 15
4 3 3 2 2 0 1 2 1 1 2 3 3 2 3 4 4 5 7 8 7 6 5 6 5 5 5 4 4 4 4 4 3 1 2 4 3 4 3 2 1 1 2 5 8 9 7 5 6 8 8 7 8 8 6 4 4 1 6 12 12 12 13 14 14 14 14 14 14 13 11 10 9 10 13 14 15 15 13 12 12 14 18 19 18 18 17 16 16 16 17 17 15 13 13 14 14
3 2 2 1 3 3 2 2 3 3 2 2 2 2 3 5 5 7 10 10 9 8 6 6 6 6 5 4 4 3 3 3 2 1 4 4 4 4 4 2 1 2 1 3 6 8 7 4 3 6 8 8 8 7 8 10 9 2 4 7 5 9 12 14 13 12 12 11 11 11 10 10 10 11 12 14 14 13 12 13 14 17 19 18 17 16 15 14 13 15 16 15 13 12 13 14 14
2 2 0 0 1 2 1 1 2 3 2 2 2 2 5 5 4 7 9 9 9 9 8 7 6 5 5 4 4 3 2 0 2 3 4 4 4 4 6 3 1 2 1 1 5 5 6 6 5 6 7 9 10 7 5 10 13 6 4 9 8 5 11 15 14 12 12 10 10 11 10 11 11 12 12 12 13 14 14 16 19 20 20 17 15 14 14 13 14 15 15 14 12 12 13 13 13
3 2 3 3 3 3 2 2 2 2 2 3 4 3 6 5 3 5 7 7 8 9 8 7 6 6 5 4 4 4 2 1 4 4 4 5 4 4 7 4 3 4 4 3 7 8 7 8 9 8 7 8 11 9 4 5 9 9 9 13 14 13 15 17 15 12 10 9 8 8 9 10 11 11 10 10 11 12 14 16 20 20 17 14 13 13 12 13 14 15 15 14 14 14 13 13 14
Wind_Direction
319 322 338 358 8 9 4 82 69 317 88 141 253 234 258 246 247 265 260 242 143 145 138 215 236 146 131 154 162 148 107 132 149 142 191 171 145 144 145 155 152 150 151 149 154 158 158 156 158 155 155 157 156 156 153 150 147 143 139 136 134 133 133 130 127 124 122 120 120 117 114 115 113 111 108 105 105 106 107 104 102 101 99 97 96 98 102 104 105 104 104 102 101 103 103 103 102
318 317 339 353 352 15 267 101 90 325 57 321 271 216 250 280 288 263 239 218 149 151 135 163 195 150 117 120 126 97 50 36 107 116 111 127 133 142 153 158 151 150 148 146 153 158 158 158 160 155 155 158 157 157 155 151 149 146 142 139 138 136 135 132 130 127 124 122 120 117 116 117 115 111 107 104 105 107 107 104 103 101 100 97 95 97 100 105 108 107 106 104 104 104 104 104 104
319 317 335 360 353 44 63 53 93 111 94 240 269 254 259 284 263 254 237 185 161 155 124 143 153 125 98 91 51 66 76 62 106 106 116 129 130 145 155 154 150 149 145 146 154 156 158 159 161 158 157 159 159 159 157 154 151 150 146 142 141 138 137 136 133 131 129 126 121 119 118 118 115 110 106 104 104 106 107 104 103 101 99 95 95 98 100 106 110 111 109 107 109 108 105 105 106
324 328 337 26 31 26 53 69 146 134 151 218 255 261 243 248 251 258 239 159 170 143 103 120 96 348 92 120 182 114 128 113 115 122 123 136 138 145 150 150 149 147 144 148 153 155 159 160 162 161 160 161 161 161 160 156 154 153 149 144 142 140 139 138 136 134 133 129 124 122 121 118 114 110 107 106 105 107 107 105 102 99 98 95 96 101 103 105 109 114 113 112 115 114 109 108 108
326 334 346 75 77 9 90 118 144 135 200 210 221 263 242 234 257 265 188 152 179 123 112 164 114 294 32 136 169 132 136 108 120 125 114 134 143 146 149 148 148 145 145 149 153 155 158 159 161 162 164 163 162 164 162 158 156 153 149 143 140 142 142 141 140 137 134 132 128 125 123 119 113 109 108 107 107 107 106 104 100 96 95 95 97 102 106 107 110 114 116 118 117 116 115 114 111
334 1 74 96 113 218 99 146 247 219 229 203 213 268 258 249 263 245 142 128 150 108 128 169 143 130 57 38 72 83 130 119 133 124 120 138 146 147 149 149 148 148 149 151 153 155 157 160 160 160 162 163 163 164 162 160 157 153 147 143 142 145 144 143 143 140 138 136 132 127 123 119 115 112 111 108 107 107 105 102 98 96 94 97 101 102 107 111 114 115 118 121 118 119 122 116 106
343 9 71 72 336 20 98 179 225 252 240 206 223 258 266 268 258 210 114 97 58 68 102 162 119 104 35 97 72 52 95 121 132 126 133 143 145 145 148 148 149 151 154 155 155 157 159 161 160 157 158 160 163 165 161 159 155 149 145 143 145 148 146 146 146 144 143 141 136 130 125 122 118 116 115 111 109 107 104 101 99 100 99 104 107 106 111 115 117 117 119 125 126 126 122 109 98
350 4 87 86 15 8 110 222 232 234 242 223 234 250 260 269 254 160 123 143 136 124 139 125 111 99 318 89 85 52 87 115 124 124 136 141 143 145 147 148 149 151 154 156 156 157 160 162 160 158 157 158 163 166 163 159 154 147 148 149 149 151 149 150 149 147 147 145 141 134 131 126 121 119 116 113 111 108 105 104 103 102 101 104 109 111 115 116 119 119 122 130 132 128 116 104 96
52 126 22 86 85 331 237 266 252 236 257 253 257 260 257 269 268 142 102 28 125 169 182 143 119 123 81 76 84 61 82 112 121 121 132 139 142 143 146 151 151 150 153 155 154 154 158 160 159 157 157 158 162 165 165 161 159 153 153 156 155 152 151 153 153 152 151 149 145 139 135 128 123 121 118 115 112 111 109 109 107 100 95 96 105 113 116 116 118 122 127 132 132 123 112 105 98
60 148 90 98 91 328 289 269 259 261 270 263 262 260 257 263 261 147 119 175 202 169 138 106 99 118 106 78 75 79 100 117 119 113 126 136 139 139 142 149 150 148 149 151 151 153 156 158 157 156 156 158 162 165 166 164 164 159 157 160 158 154 153 155 156 155 155 151 147 144 138 131 127 124 121 117 114 112 112 114 109 97 89 90 99 112 121 123 124 128 131 132 127 118 109 105 104
31 320 105 95 70 242 259 260 268 279 273 272 264 256 249 239 211 150 138 170 211 107 104 100 98 114 99 79 69 100 110 115 114 111 127 137 136 136 138 141 142 140 141 145 149 152 153 156 155 154 155 157 163 164 166 167 168 163 158 161 161 159 157 158 159 158 156 152 149 147 141 133 129 128 124 121 117 115 116 116 107 93 84 87 96 109 124 132 133 133 133 130 121 111 104 105 110
73 318 73 103 168 204 224 243 270 277 276 281 275 265 233 214 185 147 154 148 138 76 108 123 131 123 99 90 107 105 102 107 114 118 134 141 140 140 141 141 139 136 139 146 150 152 154 157 154 153 156 158 162 164 167 166 166 166 160 161 162 162 160 161 162 160 158 155 151 148 143 137 132 131 128 124 120 116 117 115 104 89 80 83 93 106 122 133 136 135 133 127 117 106 100 104 116
132 194 88 129 200 195 242 248 270 291 295 284 272 272 206 176 160 153 159 116 83 63 94 132 133 110 97 104 114 102 92 107 119 125 136 140 140 141 144 145 143 142 146 155 155 155 158 158 152 151 156 158 162 165 168 166 165 170 165 162 163 163 162 163 164 161 159 157 154 152 146 141 136 135 132 126 122 118 116 115 102 86 80 82 91 107 121 132 136 135 133 124 114 107 102 103 111
164 175 117 216 265 266 258 251 285 318 298 284 290 289 119 110 121 113 108 95 80 89 115 123 122 99 102 120 105 100 109 121 124 129 133 132 133 137 143 146 147 147 150 158 158 156 159 161 153 149 154 158 165 168 169 171 170 172 166 162 163 164 163 164 166 161 160 159 157 156 151 146 142 139 136 129 126 121 117 115 101 86 81 82 91 108 119 130 135 136 131 121 116 111 107 106 108
171 181 112 167 311 312 252 235 286 349 296 293 322 343 66 77 117 92 88 101 83 94 111 123 129 107 136 148 134 158 141 127 126 129 130 128 132 138 145 147 146 147 151 157 157 157 160 163 157 151 157 159 165 169 168 172 173 170 165 163 164 165 164 164 166 162 162 162 160 161 156 151 147 143 140 135 131 126 121 115 101 88 83 85 94 106 118 129 134 135 128 120 117 112 108 108 108
157 139 82 105 280 273 247 232 66 32 306 297 329 9 58 5 38 85 78 96 73 43 56 96 157 113 151 151 139 144 130 124 127 130 129 127 131 138 145 147 145 148 156 159 158 160 163 165 160 155 159 159 164 168 166 169 171 167 165 168 166 166 168 165 165 165 166 166 164 164 162 157 153 150 147 141 137 133 125 116 104 92 88 95 102 110 121 128 132 132 125 120 116 112 110 109 110
89 109 121 181 252 249 234 85 28 10 315 314 334 10 65 9 1 40 24 80 81 62 54 41 32 84 118 117 124 128 126 126 129 131 126 125 129 135 143 145 145 151 160 162 162 163 165 165 161 157 158 159 161 165 167 166 164 165 168 173 170 169 171 169 168 167 169 170 167 166 166 163 159 158 154 148 144 138 127 120 110 100 99 104 109 114 123 129 132 131 126 121 117 115 114 115 115
83 138 171 210 234 235 159 88 334 342 321 319 333 356 56 39 3 348 26 73 84 77 70 70 60 70 92 106 119 126 132 132 134 134 127 128 134 137 145 149 151 156 163 165 165 166 167 166 164 159 158 159 161 164 166 163 162 167 173 176 174 174 175 174 174 171 172 173 170 168 171 170 166 165 162 158 153 143 134 128 120 109 107 110 112 115 121 128 133 132 128 124 121 121 118 117 117
143 162 158 219 229 217 112 91 334 335 285 319 353 359 19 23 359 5 47 77 89 87 81 88 84 87 104 117 129 133 136 136 141 142 139 147 150 150 154 158 160 164 170 170 168 169 169 167 167 163 160 161 162 165 166 165 166 169 176 178 175 176 178 180 181 178 176 176 174 173 176 175 172 170 170 169 161 150 144 138 131 121 114 113 115 117 121 126 129 130 128 127 124 121 118 115 116
180 154 169 237 245 275 50 44 328 283 264 7 359 4 12 352 338 33 75 84 92 107 114 106 110 123 128 133 140 142 142 143 149 150 154 159 158 160 163 169 173 175 177 175 172 173 174 172 172 167 163 163 163 165 166 168 170 171 177 179 174 175 180 183 183 182 180 181 180 178 179 180 176 172 172 174 167 159 155 151 144 134 125 120 120 121 125 127 128 129 128 127 126 119 114 106 102
213 155 192 235 251 287 334 359 309 292 39 67 357 8 14 340 343 34 70 80 80 122 140 133 134 139 140 146 149 151 150 151 157 160 162 161 162 169 174 178 180 180 178 176 177 180 180 179 177 170 165 165 164 166 168 172 173 173 178 181 178 177 181 183 183 184 185 186 184 181 183 186 182 174 176 176 171 168 166 165 159 149 141 134 131 129 130 132 129 128 128 129 127 120 112 99 100
252 220 217 230 247 269 264 251 192 336 16 66 36 17 349 329 355 23 62 79 75 136 147 140 140 141 145 151 154 155 155 160 168 169 166 163 168 177 183 184 183 181 178 180 182 184 185 184 181 172 168 167 166 168 170 174 177 178 181 184 184 183 185 187 188 186 186 188 184 182 182 187 187 181 182 179 175 175 175 175 169 162 157 150 147 146 145 144 140 136 133 133 132 128 120 104 122
228 265 242 232 234 231 246 219 131 92 55 57 57 360 331 13 7 9 62 72 96 136 145 141 140 140 144 147 151 156 160 170 177 176 170 170 176 182 186 187 186 183 182 185 186 187 188 187 183 175 170 169 169 170 169 173 179 182 185 187 189 191 191 193 195 189 187 187 183 182 181 185 190 187 187 182 180 181 181 181 176 173 172 167 163 163 165 162 159 156 147 146 147 148 150 131 139
207 249 250 234 209 203 238 217 127 104 102 104 100 57 22 31 8 3 37 53 102 130 138 132 131 131 134 136 139 144 147 171 189 182 177 182 185 186 187 188 188 186 184 188 189 188 189 187 183 177 173 170 170 170 169 173 179 185 188 189 190 194 195 196 198 192 189 187 184 184 184 189 195 193 192 188 185 183 185 186 180 180 181 178 177 178 182 175 166 168 166 167 165 158 168 154 147
213 229 244 246 202 199 209 117 69 85 121 124 73 66 22 102 44 2 350 52 99 120 120 115 114 109 112 111 110 110 108 144 196 184 185 196 195 192 192 191 191 189 187 190 191 190 188 188 185 181 176 174 174 173 171 174 179 184 189 190 190 194 197 196 196 193 191 190 188 187 188 194 200 200 198 194 190 186 186 188 185 187 187 185 187 189 192 188 175 173 176 179 171 164 179 166 157
214 215 229 16 322 244 118 71 59 82 135 111 84 105 264 251 167 352 323 58 101 114 106 101 99 90 85 78 74 70 70 75 198 195 189 195 199 200 198 195 193 190 191 193 193 191 190 192 191 185 180 177 178 178 178 179 181 185 189 192 192 195 198 195 192 191 191 193 191 190 193 199 203 204 202 197 195 190 188 191 190 190 190 190 194 197 203 202 196 203 209 200 188 193 187 171 167
195 173 154 60 4 297 87 68 28 58 345 146 137 176 267 286 147 83 307 84 106 113 104 98 97 93 91 81 66 53 38 16 348 294 202 190 200 206 204 201 198 192 192 193 191 192 193 194 192 186 183 181 182 183 183 184 185 187 190 192 194 195 195 192 189 188 188 191 192 192 196 205 207 207 204 200 197 191 189 192 193 193 192 192 198 206 208 213 223 236 238 238 225 192 181 176 178
165 113 10 349 7 337 360 36 309 45 350 170 145 143 352 351 106 179 210 101 106 111 107 105 105 107 110 107 99 70 46 28 359 327 311 243 222 226 220 209 202 195 194 193 190 191 193 194 192 189 187 186 187 187 185 186 188 190 191 193 194 193 191 188 186 187 188 191 196 196 200 207 210 210 208 204 199 193 191 193 195 195 192 193 201 208 214 229 240 241 246 251 213 180 175 182 189
73 93 28 325 7 352 311 310 227 123 156 173 114 47 347 338 233 215 158 105 107 110 112 114 114 120 122 121 124 118 138 146 168 251 255 252 240 234 232 219 206 198 196 196 192 185 185 189 192 196 194 191 191 190 189 192 193 194 195 196 196 193 188 186 183 186 190 194 201 202 204 209 211 212 211 208 200 194 193 193 196 197 195 197 203 211 223 235 241 243 243 224 189 178 179 188 193
335 46 56 338 10 337 286 288 206 125 166 155 99 48 298 294 251 226 123 110 110 110 116 120 118 121 120 120 123 126 149 152 152 180 237 249 234 235 239 227 208 201 202 196 186 175 175 185 197 205 200 193 191 191 194 201 203 201 199 202 205 201 189 185 183 187 194 201 207 207 208 211 211 212 210 208 202 195 195 196 197 199 202 203 204 214 224 227 236 236 206 185 180 181 186 190 193
353 10 31 25 18 284 283 301 134 134 192 123 91 90 264 345 162 172 119 113 111 111 115 114 111 109 105 103 99 85 65 73 79 84 30 20 129 239 247 230 206 202 204 192 182 175 169 175 205 212 205 200 195 194 199 203 203 200 201 205 212 211 194 186 186 190 198 207 210 209 211 213 212 212 209 207 203 197 199 202 202 202 208 208 205 212 221 225 224 197 177 177 181 186 189 191 195
35 41 332 346 177 264 298 298 185 175 248 86 91 105 223 210 203 112 106 111 108 109 110 105 104 97 94 84 79 72 34 32 35 35 19 23 51 213 222 230 208 206 206 192 177 165 167 180 246 218 210 207 204 207 210 207 207 206 203 201 208 214 200 191 191 194 202 211 210 210 213 212 212 211 208 207 206 203 204 208 207 208 214 214 209 211 216 220 209 187 180 182 185 188 190 194 200
9 99 262 292 255 277 311 301 224 179 167 64 104 135 198 236 274 85 103 112 106 107 107 102 101 95 97 91 83 81 52 35 23 21 20 14 8 220 219 221 152 210 216 202 179 157 176 195 260 241 232 224 215 225 228 225 237 231 211 200 200 210 207 200 195 197 205 210 208 211 212 208 210 211 209 209 208 205 207 209 210 214 218 216 210 210 214 214 207 196 193 193 194 195 193 198 203
328 10 231 259 250 257 282 298 255 184 156 136 121 129 176 185 128 99 109 115 110 112 114 108 109 104 105 102 93 85 69 56 31 29 39 45 42 39 358 39 47 44 54 194 191 194 211 214 230 238 241 232 216 218 227 228 239 238 228 214 202 206 218 209 203 205 207 208 207 209 208 206 210 211 208 209 206 202 205 208 212 215 215 213 208 207 211 211 207 206 205 201 203 205 201 203 206
260 280 241 258 264 247 246 255 230 179 145 149 136 124 173 169 116 108 115 118 116 121 123 119 118 112 108 100 96 94 80 69 50 49 53 49 45 49 51 44 44 54 68 97 133 174 211 214 222 228 229 226 212 209 215 220 225 223 225 228 206 205 228 215 209 213 208 205 206 204 203 207 209 209 208 207 203 201 202 207 213 213 208 207 205 205 207 208 205 210 213 209 211 217 219 215 211
226 254 207 230 267 260 244 235 187 157 126 146 155 145 167 158 118 117 120 119 118 123 125 123 122 116 111 104 101 100 91 81 66 64 61 55 52 56 59 51 43 51 75 98 142 179 201 205 212 222 224 224 215 208 213 216 215 213 217 232 215 203 218 219 206 207 206 202 204 203 203 203 200 201 206 204 202 203 202 206 212 211 208 205 204 206 207 206 206 214 220 216 217 223 223 221 219
245 282 337 295 280 294 278 233 154 141 111 91 151 133 153 156 128 122 122 118 120 129 131 130 130 125 119 109 102 95 94 97 81 72 66 62 58 56 57 59 53 44 133 173 202 205 207 203 205 214 219 221 218 213 216 216 212 209 209 225 229 204 205 227 203 197 202 202 201 204 204 201 195 193 195 197 199 202 201 205 210 210 209 206 206 210 208 207 210 222 229 219 217 223 221 225 232
7 29 3 339 323 312 323 54 86 107 94 346 104 114 147 162 130 129 129 125 129 137 134 132 128 119 113 106 101 97 94 89 77 68 60 58 53 48 47 48 46 29 349 220 220 206 194 191 200 211 216 217 218 215 215 216 212 207 204 211 228 217 203 218 219 195 198 203 201 202 204 203 202 199 194 194 197 199 201 206 210 208 208 207 212 217 213 214 219 227 232 218 214 226 234 239 238
20 22 29 352 330 325 344 18 4 56 94 295 64 102 134 117 90 102 118 118 124 129 123 125 121 112 110 108 106 101 88 71 59 53 51 52 46 41 36 29 23 9 1 323 246 220 201 197 206 212 214 216 217 215 214 214 213 211 208 205 214 224 207 202 230 210 193 199 201 200 203 205 206 207 203 201 200 201 204 207 209 211 211 212 216 218 216 220 225 227 225 217 215 225 236 243 240
7 5 29 322 323 20 5 345 344 11 90 135 82 91 103 72 74 55 55 97 108 108 109 112 114 115 119 119 116 108 99 87 66 53 49 50 45 37 31 23 14 3 0 352 312 255 221 217 216 213 215 219 220 218 216 214 212 212 212 210 209 216 211 198 216 245 197 192 200 200 203 206 207 209 208 207 206 205 208 209 210 215 216 215 217 217 217 219 223 226 221 218 222 227 235 243 246
321 333 84 308 338 77 200 300 355 5 11 80 84 60 3 44 82 63 32 80 96 101 106 102 101 110 114 113 112 109 108 108 92 77 58 51 47 38 33 28 20 15 8 360 352 318 243 223 219 219 224 228 225 222 219 212 206 205 207 210 209 211 211 201 209 242 216 186 196 201 203 207 207 208 208 208 209 208 210 212 213 217 217 216 218 220 224 225 223 225 224 224 228 231 237 243 249
319 311 95 18 31 31 287 41 53 34 350 319 96 76 348 7 70 75 47 83 84 78 103 108 109 112 114 113 111 108 106 108 106 108 97 68 55 46 41 36 33 29 15 2 4 358 289 235 226 229 231 235 235 227 223 216 204 199 199 201 203 203 205 203 204 224 228 192 192 202 202 205 207 207 208 208 210 209 212 216 217 216 215 216 219 223 231 233 228 225 226 228 231 234 238 240 247
329 266 277 7 32 19 11 45 70 89 274 276 102 115 162 351 29 37 84 97 84 57 90 115 127 125 126 124 116 114 112 110 107 111 110 85 64 54 45 38 40 38 22 1 350 356 334 255 242 242 237 237 241 232 225 222 209 202 201 200 203 201 202 206 204 214 233 222 202 204 204 204 206 208 209 208 211 212 214 219 221 216 214 216 220 226 232 235 233 230 230 233 237 239 238 237 244
278 262 319 10 26 12 12 57 69 150 229 312 359 110 135 92 317 252 120 94 76 54 74 106 130 128 127 126 123 123 122 118 110 105 101 85 69 60 51 41 42 39 28 14 347 343 343 309 271 257 247 242 243 234 222 221 214 207 206 204 205 202 202 205 203 210 230 234 219 214 209 206 208 209 210 210 213 217 219 223 226 223 218 218 222 228 233 236 237 235 235 238 241 244 244 242 246
258 271 346 4 1 354 25 53 39 25 54 345 317 32 106 155 206 226 170 103 100 98 105 117 133 132 121 118 121 120 118 114 109 108 101 80 64 56 52 44 41 37 29 21 5 348 341 324 295 263 248 243 243 234 219 215 212 209 209 207 206 204 202 203 203 209 222 228 225 221 215 210 208 208 210 214 216 220 223 228 231 231 227 224 226 231 235 239 240 239 239 241 244 247 250 251 252
273 311 12 15 1 2 24 32 24 32 50 302 281 318 111 198 226 212 183 135 154 173 172 153 137 123 113 111 115 115 112 109 103 103 97 77 60 52 47 44 39 37 36 28 20 16 7 345 307 257 237 240 242 233 219 212 209 208 208 208 209 203 199 199 199 205 214 220 223 221 216 211 207 207 211 216 218 220 223 229 235 238 236 233 231 232 236 239 242 243 244 245 247 250 254 256 256
320 6 25 22 4 10 21 16 55 55 4 266 282 333 112 173 257 205 195 204 181 168 176 179 126 106 113 113 116 120 116 113 109 98 88 73 61 52 44 41 38 36 38 36 34 34 28 18 351 271 232 233 234 226 219 213 212 213 207 205 210 203 194 192 194 200 207 212 219 220 217 213 210 212 217 222 224 224 225 230 239 243 242 241 238 237 238 240 244 247 249 251 252 253 258 262 261
33 33 40 28 342 2 18 356 42 82 263 265 311 352 80 133 246 231 238 233 185 163 167 167 140 123 124 114 114 124 122 117 112 95 78 65 56 46 35 31 31 33 34 32 34 44 46 36 25 323 239 230 225 217 214 212 215 221 214 205 208 203 193 190 189 193 200 206 212 216 217 218 218 220 224 228 228 226 226 232 244 248 245 245 244 243 244 245 247 250 253 256 258 259 260 262 263
41 44 56 69 335 3 9 317 342 196 239 248 336 2 58 198 239 236 227 179 179 182 169 158 151 142 129 118 116 120 122 119 110 97 82 69 55 39 28 18 14 21 30 29 28 38 48 47 52 37 271 246 238 228 218 217 221 224 218 210 207 201 193 191 189 189 197 204 208 210 214 220 225 227 228 228 226 223 224 230 247 251 245 245 245 244 247 248 249 251 253 256 259 261 261 259 259
41 76 100 114 106 71 279 273 289 272 259 266 325 4 53 276 277 221 176 156 164 157 145 151 149 139 133 130 123 108 109 118 115 112 101 86 67 43 27 10 5 14 26 30 27 31 42 45 56 48 319 268 248 241 231 231 232 226 221 219 212 204 199 197 196 196 200 206 211 213 218 223 226 231 233 231 229 227 226 225 234 245 244 244 245 245 247 250 251 251 254 256 257 261 262 260 257
15 147 130 133 146 145 199 231 203 234 272 294 311 342 160 206 264 226 185 158 129 115 127 136 122 126 131 122 112 103 103 116 119 126 132 107 75 50 34 10 3 11 16 21 26 28 34 40 51 60 38 341 253 234 226 233 236 232 233 232 221 211 206 203 201 202 202 204 211 217 223 228 230 233 234 236 235 229 225 224 225 235 240 239 241 244 247 249 250 250 253 255 258 262 263 259 253
298 62 87 123 189 147 152 194 179 175 264 313 305 229 194 198 249 266 156 127 116 121 131 123 112 119 121 110 116 120 116 123 119 121 136 127 94 63 42 12 351 3 13 17 29 36 36 39 42 51 66 69 307 259 247 246 238 231 232 232 223 211 202 198 197 198 197 200 209 218 221 223 228 233 233 233 233 223 221 227 232 241 244 235 234 240 243 244 246 246 249 252 254 259 260 255 252
285 34 100 231 179 118 115 211 353 83 106 281 249 165 308 312 302 301 134 129 129 134 129 127 132 126 121 130 144 141 135 129 120 112 124 166 162 158 43 36 344 348 7 14 27 41 43 48 47 48 68 89 107 186 244 260 248 238 233 227 220 211 200 191 189 189 189 196 205 212 214 216 225 235 234 232 231 227 229 235 237 244 250 242 236 240 241 242 244 243 245 251 253 254 255 254 254
109 148 213 225 61 77 101 119 357 45 126 269 257 188 227 183 230 260 177 166 182 168 141 133 134 122 127 147 146 136 131 118 111 105 54 279 252 282 298 113 8 332 1 16 28 41 44 48 55 56 57 66 72 67 64 332 276 259 251 238 220 208 197 184 182 186 188 194 200 201 205 212 221 229 230 228 227 228 234 241 241 244 250 246 241 243 244 245 247 247 250 254 256 256 254 256 260
118 173 188 112 88 22 61 119 153 120 192 268 287 238 215 200 216 215 192 193 198 188 159 140 139 133 131 133 121 112 112 111 103 53 298 280 268 269 259 187 177 276 356 23 32 38 44 53 63 62 53 51 59 54 43 10 344 281 253 252 228 198 179 171 177 187 190 197 205 207 208 213 216 219 222 221 220 222 230 241 247 249 249 247 243 243 245 247 248 248 250 251 253 253 254 259 265
30 58 54 80 142 160 176 178 161 154 186 235 278 299 249 231 211 189 197 201 185 179 176 162 164 158 142 132 117 96 95 127 140 264 270 283 294 263 232 204 211 232 296 27 43 36 37 62 82 62 50 46 47 49 51 36 21 2 275 293 253 185 164 157 161 170 175 185 200 206 208 213 220 224 225 225 226 227 230 236 242 245 243 241 239 239 239 241 241 240 242 243 244 248 254 259 264
10 26 8 338 103 119 162 219 152 141 160 186 187 253 261 250 205 181 199 202 183 180 179 175 177 161 145 135 121 99 58 341 268 269 265 294 314 241 207 196 198 183 194 98 85 65 46 60 72 59 43 36 33 36 58 52 47 58 49 28 36 112 143 149 153 157 162 168 178 188 191 196 205 213 219 225 229 229 227 228 233 239 239 234 232 234 234 234 233 233 237 239 242 248 253 258 267
145 182 199 175 144 124 121 281 275 147 157 178 166 222 266 258 190 177 197 197 187 182 170 170 174 156 149 143 136 140 143 246 267 269 270 296 315 245 214 188 127 128 138 110 93 94 81 66 63 59 46 28 26 33 49 51 50 63 76 66 59 76 109 133 148 148 149 155 159 170 185 196 201 205 212 218 223 226 226 226 231 237 238 233 233 234 231 230 230 231 235 238 241 247 254 262 272